Time,TemperatureF,DewpointF,PressureIn,WindDirection,WindDirectionDegrees,WindSpeedMPH,WindSpeedGustMPH,Humidity,HourlyPrecipIn,Conditions,Clouds,dailyrainin,SoftwareType,DateUTC
2013-02-05 00:07:00,58.1,56.0,29.90,East,90,1.0,2.0,91,0.00,,,0.00,weatherlink.com 1.10,2013-02-05 06:07:00,
2013-02-05 00:22:00,58.3,56.0,29.90,ESE,109,4.0,5.0,92,0.00,,,0.00,weatherlink.com 1.10,2013-02-05 06:22:00,
2013-02-05 00:37:00,58.7,57.0,29.89,East,92,4.0,5.0,93,0.00,,,0.00,weatherlink.com 1.10,2013-02-05 06:37:00,
2013-02-05 00:52:00,58.9,57.0,29.89,ENE,78,3.0,5.0,93,0.00,,,0.00,weatherlink.com 1.10,2013-02-05 06:52:00,
2013-02-05 01:07:00,59.0,57.0,29.89,East,81,4.0,6.0,93,0.00,,,0.00,weatherlink.com 1.10,2013-02-05 07:07:00,
2013-02-05 01:22:00,59.1,57.0,29.89,East,96,1.0,5.0,93,0.00,,,0.00,weatherlink.com 1.10,2013-02-05 07:22:00,
2013-02-05 01:37:00,59.2,58.0,29.89,ESE,122,6.0,7.0,94,0.00,,,0.00,weatherlink.com 1.10,2013-02-05 07:37:00,
2013-02-05 01:53:00,59.1,57.0,29.89,ESE,103,7.0,7.0,94,0.00,,,0.00,weatherlink.com 1.10,2013-02-05 07:53:00,
2013-02-05 02:08:00,58.7,57.0,29.89,East,82,3.0,9.0,95,0.00,,,0.00,weatherlink.com 1.10,2013-02-05 08:08:00,
2013-02-05 02:23:00,58.6,57.0,29.89,East,89,1.0,5.0,95,0.00,,,0.00,weatherlink.com 1.10,2013-02-05 08:23:00,
2013-02-05 02:38:00,58.5,57.0,29.89,East,87,2.0,5.0,96,0.00,,,0.00,weatherlink.com 1.10,2013-02-05 08:38:00,
2013-02-05 02:53:00,58.3,57.0,29.89,ESE,115,2.0,6.0,96,0.00,,,0.00,weatherlink.com 1.10,2013-02-05 08:53:00,
2013-02-05 03:08:00,58.2,57.0,29.90,ESE,117,1.0,5.0,96,0.00,,,0.00,weatherlink.com 1.10,2013-02-05 09:08:00,
2013-02-05 03:23:00,58.0,57.0,29.90,ESE,120,3.0,7.0,96,0.00,,,0.00,weatherlink.com 1.10,2013-02-05 09:23:00,
2013-02-05 03:38:00,58.0,57.0,29.90,SE,124,2.0,6.0,96,0.00,,,0.00,weatherlink.com 1.10,2013-02-05 09:38:00,
2013-02-05 03:53:00,58.0,57.0,29.89,ESE,117,2.0,5.0,96,0.00,,,0.00,weatherlink.com 1.10,2013-02-05 09:53:00,
2013-02-05 04:08:00,58.0,57.0,29.89,SE,131,2.0,6.0,97,0.00,,,0.00,weatherlink.com 1.10,2013-02-05 10:08:00,
2013-02-05 04:23:00,57.9,57.0,29.89,East,98,1.0,4.0,97,0.00,,,0.00,weatherlink.com 1.10,2013-02-05 10:23:00,
2013-02-05 04:38:00,57.9,57.0,29.89,ESE,108,1.0,2.0,97,0.00,,,0.00,weatherlink.com 1.10,2013-02-05 10:38:00,
2013-02-05 04:53:00,58.0,57.0,29.89,ENE,77,1.0,3.0,97,0.00,,,0.00,weatherlink.com 1.10,2013-02-05 10:53:00,
2013-02-05 05:08:00,58.1,57.0,29.90,East,79,1.0,3.0,97,0.00,,,0.00,weatherlink.com 1.10,2013-02-05 11:08:00,
2013-02-05 05:23:00,58.2,57.0,29.90,ENE,65,2.0,4.0,97,0.00,,,0.00,weatherlink.com 1.10,2013-02-05 11:23:00,
2013-02-05 05:38:00,58.1,57.0,29.91,ENE,70,1.0,3.0,97,0.00,,,0.00,weatherlink.com 1.10,2013-02-05 11:38:00,
2013-02-05 05:53:00,58.1,57.0,29.91,ENE,72,2.0,4.0,97,0.00,,,0.00,weatherlink.com 1.10,2013-02-05 11:53:00,
2013-02-05 06:08:00,58.2,57.0,29.91,East,95,1.0,2.0,97,0.00,,,0.00,weatherlink.com 1.10,2013-02-05 12:08:00,
2013-02-05 06:23:00,58.4,58.0,29.91,ENE,66,2.0,2.0,97,0.00,,,0.00,weatherlink.com 1.10,2013-02-05 12:23:00,
2013-02-05 06:38:00,58.5,58.0,29.92,ENE,69,1.0,2.0,97,0.00,,,0.00,weatherlink.com 1.10,2013-02-05 12:38:00,
2013-02-05 06:53:00,58.6,58.0,29.93,ENE,78,3.0,4.0,97,0.00,,,0.00,weatherlink.com 1.10,2013-02-05 12:53:00,
2013-02-05 07:08:00,58.6,58.0,29.93,ENE,70,2.0,4.0,97,0.00,,,0.00,weatherlink.com 1.10,2013-02-05 13:08:00,
2013-02-05 07:23:00,58.7,58.0,29.94,ENE,67,1.0,4.0,97,0.00,,,0.00,weatherlink.com 1.10,2013-02-05 13:23:00,
2013-02-05 07:38:00,58.8,58.0,29.95,ENE,75,1.0,3.0,97,0.00,,,0.00,weatherlink.com 1.10,2013-02-05 13:38:00,
2013-02-05 07:53:00,59.1,58.0,29.96,ENE,63,3.0,3.0,97,0.00,,,0.00,weatherlink.com 1.10,2013-02-05 13:53:00,
2013-02-05 08:08:00,59.2,58.0,29.97,East,79,2.0,4.0,97,0.00,,,0.00,weatherlink.com 1.10,2013-02-05 14:08:00,
2013-02-05 08:23:00,59.4,59.0,29.97,ESE,108,2.0,4.0,97,0.00,,,0.00,weatherlink.com 1.10,2013-02-05 14:23:00,
2013-02-05 08:38:00,59.5,59.0,29.98,East,98,2.0,4.0,97,0.00,,,0.00,weatherlink.com 1.10,2013-02-05 14:38:00,
2013-02-05 08:53:00,59.6,59.0,29.99,ENE,61,3.0,3.0,97,0.00,,,0.00,weatherlink.com 1.10,2013-02-05 14:53:00,
2013-02-05 09:08:00,59.7,59.0,29.99,ENE,73,2.0,5.0,97,0.00,,,0.00,weatherlink.com 1.10,2013-02-05 15:08:00,
2013-02-05 09:23:00,60.0,59.0,30.00,ENE,77,3.0,4.0,97,0.00,,,0.00,weatherlink.com 1.10,2013-02-05 15:23:00,
2013-02-05 09:38:00,59.8,59.0,30.00,East,82,3.0,6.0,97,0.00,,,0.00,weatherlink.com 1.10,2013-02-05 15:38:00,
2013-02-05 09:53:00,59.7,59.0,30.00,ENE,70,3.0,6.0,97,0.00,,,0.00,weatherlink.com 1.10,2013-02-05 15:53:00,
2013-02-05 10:08:00,59.7,59.0,30.01,ENE,75,4.0,5.0,97,0.00,,,0.00,weatherlink.com 1.10,2013-02-05 16:08:00,
2013-02-05 10:23:00,59.9,59.0,30.01,East,80,3.0,5.0,97,0.00,,,0.00,weatherlink.com 1.10,2013-02-05 16:23:00,
2013-02-05 10:38:00,60.1,59.0,30.01,ENE,67,4.0,5.0,96,0.00,,,0.00,weatherlink.com 1.10,2013-02-05 16:38:00,
2013-02-05 10:53:00,60.6,60.0,30.00,East,89,3.0,4.0,96,0.00,,,0.00,weatherlink.com 1.10,2013-02-05 16:53:00,
2013-02-05 11:08:00,60.8,59.0,30.01,East,83,3.0,5.0,94,0.00,,,0.00,weatherlink.com 1.10,2013-02-05 17:08:00,
2013-02-05 11:24:00,61.0,59.0,30.01,ENE,75,1.0,4.0,94,0.00,,,0.00,weatherlink.com 1.10,2013-02-05 17:24:00,
2013-02-05 11:39:00,61.3,59.0,30.01,ENE,75,0.0,4.0,93,0.00,,,0.00,weatherlink.com 1.10,2013-02-05 17:39:00,
2013-02-05 11:54:00,61.8,60.0,30.01,ENE,77,0.0,3.0,92,0.00,,,0.00,weatherlink.com 1.10,2013-02-05 17:54:00,
2013-02-05 12:09:00,62.5,60.0,30.00,East,87,1.0,3.0,91,0.00,,,0.00,weatherlink.com 1.10,2013-02-05 18:09:00,
2013-02-05 12:24:00,62.4,60.0,30.00,ENE,64,2.0,5.0,90,0.00,,,0.00,weatherlink.com 1.10,2013-02-05 18:24:00,
2013-02-05 12:39:00,62.7,60.0,30.00,NE,53,4.0,6.0,89,0.00,,,0.00,weatherlink.com 1.10,2013-02-05 18:39:00,
2013-02-05 12:54:00,63.0,60.0,29.99,NNE,15,3.0,5.0,89,0.00,,,0.00,weatherlink.com 1.10,2013-02-05 18:54:00,
2013-02-05 13:09:00,63.5,59.0,29.98,NE,56,2.0,5.0,86,0.00,,,0.00,weatherlink.com 1.10,2013-02-05 19:09:00,
2013-02-05 13:24:00,64.0,59.0,29.98,NNE,31,4.0,6.0,84,0.00,,,0.00,weatherlink.com 1.10,2013-02-05 19:24:00,
2013-02-05 13:39:00,64.6,59.0,29.97,NE,51,0.0,4.0,83,0.00,,,0.00,weatherlink.com 1.10,2013-02-05 19:39:00,
2013-02-05 13:54:00,66.2,60.0,29.97,NNE,22,4.0,4.0,79,0.00,,,0.00,weatherlink.com 1.10,2013-02-05 19:54:00,
2013-02-05 14:09:00,66.7,59.0,29.96,ENE,72,3.0,3.0,77,0.00,,,0.00,weatherlink.com 1.10,2013-02-05 20:09:00,
2013-02-05 14:24:00,67.1,59.0,29.96,ENE,70,2.0,4.0,74,0.00,,,0.00,weatherlink.com 1.10,2013-02-05 20:24:00,
2013-02-05 14:39:00,67.4,58.0,29.96,NW,308,0.0,3.0,71,0.00,,,0.00,weatherlink.com 1.10,2013-02-05 20:39:00,
2013-02-05 14:54:00,67.8,58.0,29.95,ENE,77,0.0,5.0,70,0.00,,,0.00,weatherlink.com 1.10,2013-02-05 20:54:00,
2013-02-05 15:09:00,67.5,58.0,29.95,NNW,331,3.0,5.0,72,0.00,,,0.00,weatherlink.com 1.10,2013-02-05 21:09:00,
2013-02-05 15:39:00,68.3,59.0,29.95,ENE,57,1.0,4.0,72,0.00,,,0.00,weatherlink.com 1.10,2013-02-05 21:39:00,
2013-02-05 15:54:00,68.4,58.0,29.94,East,98,1.0,5.0,70,0.00,,,0.00,weatherlink.com 1.10,2013-02-05 21:54:00,
2013-02-05 16:09:00,69.7,59.0,29.95,NNE,16,2.0,3.0,68,0.00,,,0.00,weatherlink.com 1.10,2013-02-05 22:09:00,
2013-02-05 16:24:00,68.1,58.0,29.95,ENE,74,2.0,5.0,71,0.00,,,0.00,weatherlink.com 1.10,2013-02-05 22:24:00,
2013-02-05 16:39:00,67.1,59.0,29.95,NNE,29,3.0,5.0,75,0.00,,,0.00,weatherlink.com 1.10,2013-02-05 22:39:00,
2013-02-05 16:54:00,66.6,59.0,29.95,NE,41,3.0,6.0,76,0.00,,,0.00,weatherlink.com 1.10,2013-02-05 22:54:00,
2013-02-05 17:09:00,66.3,59.0,29.95,NNE,12,6.0,7.0,76,0.00,,,0.00,weatherlink.com 1.10,2013-02-05 23:09:00,
2013-02-05 17:24:00,65.3,59.0,29.96,NNW,337,2.0,7.0,79,0.00,,,0.00,weatherlink.com 1.10,2013-02-05 23:24:00,
2013-02-05 17:39:00,64.9,59.0,29.96,NE,54,5.0,8.0,80,0.00,,,0.00,weatherlink.com 1.10,2013-02-05 23:39:00,
2013-02-05 17:54:00,64.1,59.0,29.96,NE,42,7.0,9.0,82,0.00,,,0.00,weatherlink.com 1.10,2013-02-05 23:54:00,
2013-02-05 18:09:00,63.3,58.0,29.96,NNE,33,6.0,9.0,82,0.00,,,0.00,weatherlink.com 1.10,2013-02-06 00:09:00,
2013-02-05 18:24:00,62.7,58.0,29.97,NNE,30,3.0,5.0,84,0.00,,,0.00,weatherlink.com 1.10,2013-02-06 00:24:00,
2013-02-05 18:39:00,62.2,58.0,29.97,NNE,29,8.0,9.0,86,0.00,,,0.00,weatherlink.com 1.10,2013-02-06 00:39:00,
2013-02-05 18:54:00,61.6,58.0,29.98,ENE,67,4.0,7.0,87,0.00,,,0.00,weatherlink.com 1.10,2013-02-06 00:54:00,
2013-02-05 19:09:00,61.2,58.0,29.98,ENE,62,2.0,5.0,88,0.00,,,0.00,weatherlink.com 1.10,2013-02-06 01:09:00,
2013-02-05 19:24:00,61.2,58.0,29.99,ENE,60,7.0,9.0,89,0.00,,,0.00,weatherlink.com 1.10,2013-02-06 01:24:00,
2013-02-05 19:39:00,61.0,58.0,30.00,ENE,63,8.0,10.0,90,0.00,,,0.00,weatherlink.com 1.10,2013-02-06 01:39:00,
2013-02-05 19:54:00,61.1,58.0,30.00,East,96,4.0,9.0,90,0.00,,,0.00,weatherlink.com 1.10,2013-02-06 01:54:00,
2013-02-05 20:09:00,61.2,58.0,30.01,ENE,63,4.0,6.0,90,0.00,,,0.00,weatherlink.com 1.10,2013-02-06 02:09:00,
2013-02-05 20:24:00,61.4,58.0,30.01,ENE,72,4.0,10.0,89,0.00,,,0.00,weatherlink.com 1.10,2013-02-06 02:24:00,
2013-02-05 20:39:00,61.3,58.0,30.01,ENE,57,8.0,9.0,89,0.00,,,0.00,weatherlink.com 1.10,2013-02-06 02:39:00,
2013-02-05 20:54:00,61.1,58.0,30.02,ENE,67,3.0,7.0,89,0.00,,,0.00,weatherlink.com 1.10,2013-02-06 02:54:00,
2013-02-05 21:09:00,61.1,58.0,30.02,ENE,71,2.0,6.0,89,0.00,,,0.00,weatherlink.com 1.10,2013-02-06 03:09:00,
2013-02-05 21:24:00,61.0,58.0,30.02,ENE,75,3.0,6.0,89,0.00,,,0.00,weatherlink.com 1.10,2013-02-06 03:24:00,
2013-02-05 21:39:00,60.9,58.0,30.02,East,94,3.0,7.0,90,0.00,,,0.00,weatherlink.com 1.10,2013-02-06 03:39:00,
2013-02-05 21:54:00,60.7,58.0,30.02,ENE,58,3.0,7.0,90,0.00,,,0.00,weatherlink.com 1.10,2013-02-06 03:54:00,
2013-02-05 22:09:00,60.6,58.0,30.02,East,80,4.0,7.0,90,0.00,,,0.00,weatherlink.com 1.10,2013-02-06 04:09:00,
2013-02-05 22:24:00,60.4,58.0,30.03,East,86,1.0,5.0,90,0.00,,,0.00,weatherlink.com 1.10,2013-02-06 04:24:00,
2013-02-05 22:39:00,60.1,57.0,30.02,ENE,70,3.0,6.0,90,0.00,,,0.00,weatherlink.com 1.10,2013-02-06 04:39:00,
2013-02-05 22:54:00,59.6,57.0,30.02,ENE,72,2.0,4.0,90,0.00,,,0.00,weatherlink.com 1.10,2013-02-06 04:54:00,
2013-02-05 23:10:00,59.1,57.0,30.02,East,92,1.0,4.0,91,0.00,,,0.00,weatherlink.com 1.10,2013-02-06 05:10:00,
2013-02-05 23:25:00,58.9,56.0,30.03,East,82,2.0,3.0,91,0.00,,,0.00,weatherlink.com 1.10,2013-02-06 05:25:00,
2013-02-05 23:40:00,58.6,56.0,30.03,ENE,75,1.0,2.0,91,0.00,,,0.00,weatherlink.com 1.10,2013-02-06 05:40:00,
2013-02-05 23:55:00,58.1,56.0,30.02,NNE,28,1.0,3.0,92,0.00,,,0.00,weatherlink.com 1.10,2013-02-06 05:55:00,